Weather History for Kleine Brogel, Belgium

Change the Weather History Date:

Wednesday, June 26, 2013

  Actual Average Record
Temperature  
Mean Temperature 52 °F -  
Max Temperature 63 °F 69 °F 89 °F (2001)
Min Temperature 40 °F 55 °F 40 °F (2013)
Degree Days  
Heating Degree Days 14    
Growing Degree Days 2 (Base 50)    
Moisture  
Dew Point 46 °F    
Average Humidity 74    
Maximum Humidity 100    
Minimum Humidity 40    
Precipitation  
Precipitation 0.28 in - - ()
Sea Level Pressure  
Sea Level Pressure 30.38 in    
Wind  
Wind Speed 3 mph ()    
Max Wind Speed 10 mph    
Max Gust Speed -    
Visibility 7.1 miles    
Events Rain    
Averages and records for this station are not official NWS values.
T = Trace of Precipitation, MM = Missing Value Source: Averaged Metar Reports

Daily Weather History Graph

Daily Weather History Graph

Search for Another Location

Airport:

Trip Planner

Search our weather history database for the weather conditions in past years. The results will help you decide how hot, cold, wet, or windy it might be!

Date:

Astronomy

Jun. 26, 2013 Rise Set
Actual Time 5:24 AM CEST 9:57 PM CEST
Civil Twilight 4:37 AM CEST 10:44 PM CEST
Nautical Twilight 3:25 AM CEST 11:56 PM CEST
Astronomical Twilight 2:13 AM CEST 1:08 AM CEST
Moon 11:40 PM CEST (6/26) 9:23 AM CEST (6/26)
Length of Visible Light 18h 07m
Length of Day
16h 33m
Waning Gibbous, 87% of the Moon is Illuminated
Jun 26
Waning Gibbous
Jun 30
Last Quarter
Jul 8
New
Jul 16
First Quarter
Jul 22
Full

Hourly Weather History & Observations

Time (CEST) Temp. Windchill Dew Point Humidity Pressure Visibility Wind Dir Wind Speed Gust Speed Precip Events Conditions
12:25 AM 46.4 °F - 44.6 °F 93% 30.42 in 6.2 mi Variable 1.2 mph - N/A   Clear
12:55 AM 46.4 °F - 44.6 °F 93% 30.42 in 6.2 mi Variable 2.3 mph - N/A   Clear
1:25 AM 44.6 °F - 44.6 °F 100% 30.39 in 6.2 mi Variable 2.3 mph - N/A   Clear
1:55 AM 44.6 °F - 42.8 °F 93% 30.39 in 6.2 mi Calm Calm - N/A   Clear
2:00 AM 44 °F - 44 °F 97% 30.42 in 16 mi Calm Calm - -  
2:25 AM 42.8 °F - 42.8 °F 100% 30.39 in 6.2 mi Variable 2.3 mph - N/A   Clear
3:25 AM 42.8 °F 41.1 °F 42.8 °F 100% 30.39 in 6.2 mi Variable 3.5 mph - N/A   Clear
3:55 AM 42.8 °F - 41.0 °F 93% 30.39 in 6.2 mi Variable 2.3 mph - N/A   Clear
4:25 AM 41.0 °F - 41.0 °F 100% 30.39 in 6.2 mi Variable 2.3 mph - N/A   Clear
4:55 AM 41.0 °F - 41.0 °F 100% 30.39 in 6.2 mi Variable 2.3 mph - N/A   Clear
5:00 AM 41 °F - 41 °F 100% 30.41 in 14 mi 2.2 mph - -  
5:25 AM 41.0 °F - 41.0 °F 100% 30.39 in 6.2 mi Variable 2.3 mph - N/A   Clear
5:45 AM 41.0 °F - 41.0 °F 100% 30.39 in 6.2 mi Variable 2.3 mph - N/A   Clear
5:55 AM 41.0 °F - 41.0 °F 100% 30.39 in 6.2 mi Variable 2.3 mph - N/A   Clear
6:25 AM 41.0 °F - 41.0 °F 100% 30.39 in 6.2 mi Variable 2.3 mph - N/A   Partly Cloudy
6:55 AM 44.6 °F - 44.6 °F 100% 30.39 in 6.2 mi Variable 2.3 mph - N/A   Scattered Clouds
7:25 AM 46.4 °F - 46.4 °F 100% 30.39 in 6.2 mi Variable 2.3 mph - N/A   Scattered Clouds
7:55 AM 50.0 °F - 48.2 °F 94% 30.39 in 6.2 mi Variable 2.3 mph - N/A   Partly Cloudy
8:00 AM 50 °F - 49 °F 94% 30.41 in 7 mi 2.2 mph - -   Scattered Clouds
8:25 AM 51.8 °F - 48.2 °F 88% 30.39 in 6.2 mi Variable 2.3 mph - N/A   Scattered Clouds
8:55 AM 55.4 °F - 50.0 °F 82% 30.42 in 6.2 mi Variable 2.3 mph - N/A   Scattered Clouds
9:12 AM 55.4 °F - 48.2 °F 77% 30.42 in 6.2 mi Variable 3.5 mph - N/A   Mostly Cloudy
9:25 AM 55.4 °F - 48.2 °F 77% 30.42 in 6.2 mi WNW 4.6 mph - N/A   Mostly Cloudy
9:55 AM 57.2 °F - 48.2 °F 72% 30.42 in 6.2 mi North 4.6 mph - N/A   Scattered Clouds
10:25 AM 57.2 °F - 48.2 °F 72% 30.39 in 6.2 mi Variable 3.5 mph - N/A   Scattered Clouds
10:55 AM 57.2 °F - 46.4 °F 67% 30.42 in 6.2 mi NW 4.6 mph - N/A   Mostly Cloudy
11:00 AM 57 °F - 47 °F 61% 30.42 in 9 mi 4.5 mph - -   Mostly Cloudy
11:25 AM 59.0 °F - 48.2 °F 67% 30.39 in 6.2 mi WNW 5.8 mph - N/A   Mostly Cloudy
11:29 AM 59.0 °F - 46.4 °F 63% 30.39 in 6.2 mi NW 5.8 mph - N/A   Mostly Cloudy
11:55 AM 60.8 °F - 48.2 °F 63% 30.39 in 6.2 mi NNW 4.6 mph - N/A   Scattered Clouds
12:25 PM 62.6 °F - 46.4 °F 55% 30.39 in 6.2 mi West 5.8 mph - N/A   Scattered Clouds
12:55 PM 62.6 °F - 44.6 °F 52% 30.39 in 6.2 mi Variable 3.5 mph - N/A   Mostly Cloudy
1:25 PM 60.8 °F - 46.4 °F 59% 30.39 in 6.2 mi NW 5.8 mph - N/A   Mostly Cloudy
1:55 PM 62.6 °F - 44.6 °F 52% 30.39 in 6.2 mi West 8.1 mph - N/A   Mostly Cloudy
2:00 PM 62 °F - 44 °F 41% 30.41 in 9 mi West 6.7 mph - -   Mostly Cloudy
2:25 PM 60.8 °F - 46.4 °F 59% 30.39 in 6.2 mi West 10.4 mph - N/A   Mostly Cloudy
2:55 PM 60.8 °F - 42.8 °F 52% 30.39 in 6.2 mi West 9.2 mph - N/A   Mostly Cloudy
3:25 PM 60.8 °F - 42.8 °F 52% 30.39 in 6.2 mi WNW 6.9 mph - N/A   Mostly Cloudy
3:55 PM 60.8 °F - 42.8 °F 52% 30.39 in 6.2 mi West 8.1 mph - N/A   Mostly Cloudy
4:25 PM 60.8 °F - 44.6 °F 55% 30.39 in 6.2 mi NW 5.8 mph - N/A   Mostly Cloudy
4:55 PM 62.6 °F - 44.6 °F 52% 30.36 in 6.2 mi Variable 3.5 mph - N/A   Mostly Cloudy
5:00 PM 63 °F - 45 °F 40% 30.39 in 16 mi 2.2 mph - -   Scattered Clouds
5:25 PM 62.6 °F - 46.4 °F 55% 30.36 in 6.2 mi West 4.6 mph - N/A   Mostly Cloudy
5:54 PM 62.6 °F - 46.4 °F 55% 30.36 in 6.2 mi WSW 5.8 mph - N/A   Mostly Cloudy
5:55 PM 62.6 °F - 46.4 °F 55% 30.36 in 6.2 mi WSW 5.8 mph - N/A   Mostly Cloudy
6:25 PM 62.6 °F - 46.4 °F 55% 30.36 in 6.2 mi WSW 5.8 mph - N/A   Mostly Cloudy
6:55 PM 62.6 °F - 46.4 °F 55% 30.33 in 6.2 mi Variable 3.5 mph - N/A   Mostly Cloudy
7:25 PM 62.6 °F - 46.4 °F 55% 30.33 in 6.2 mi WNW 6.9 mph - N/A   Mostly Cloudy
7:55 PM 62.6 °F - 46.4 °F 55% 30.33 in 6.2 mi WNW 4.6 mph - N/A   Mostly Cloudy
8:00 PM 62 °F - 46 °F 45% 30.34 in 16 mi 4.5 mph - -   Scattered Clouds
8:25 PM 62.6 °F - 46.4 °F 55% 30.33 in 6.2 mi Variable 3.5 mph - N/A   Mostly Cloudy
9:25 PM 59.0 °F - 48.2 °F 67% 30.30 in 6.2 mi WSW 4.6 mph - N/A   Mostly Cloudy
9:55 PM 57.2 °F - 48.2 °F 72% 30.30 in 6.2 mi Variable 3.5 mph - N/A   Mostly Cloudy
10:25 PM 57.2 °F - 48.2 °F 72% 30.30 in 6.2 mi Variable 3.5 mph - N/A   Mostly Cloudy
10:55 PM 55.4 °F - 50.0 °F 82% 30.30 in 6.2 mi Variable 2.3 mph - N/A   Mostly Cloudy
11:00 PM 56 °F - 51 °F 76% 30.31 in 16 mi 2.2 mph - -   Partly Cloudy
11:25 PM 55.4 °F - 48.2 °F 77% 30.30 in 6.2 mi Variable 3.5 mph - N/A   Mostly Cloudy
11:55 PM 55.4 °F - 50.0 °F 82% 30.30 in 6.2 mi WNW 4.6 mph - N/A Rain Light Rain